Weather History for Bishop, CA

Change the Weather History Date:

Thursday, June 13, 2013

  Actual Average Record
Temperature  
Mean Temperature 73 °F 71 °F  
Max Temperature 94 °F 91 °F 102 °F (1949)
Min Temperature 51 °F 50 °F 40 °F (1955)
Degree Days  
Heating Degree Days 0 1  
Month to date heating degree days 0 16  
Since 1 June heating degree days 0 16  
Since 1 July heating degree days 3851 4174  
Cooling Degree Days 8 6  
Month to date cooling degree days 150 69  
Year to date cooling degree days 236 137  
Since 1 June cooling degree days 150 69  
Growing Degree Days 22 (Base 50)    
Moisture  
Dew Point 13 °F    
Average Humidity 17    
Maximum Humidity 32    
Minimum Humidity 2    
Precipitation  
Precipitation 0.00 in 0.00 in 0.20 in (2009)
Month to date precipitation T 0.09  
Year to date precipitation 0.47 2.97  
Snow  
Snow 0.00 in 0.00 in - ()
Month to date snowfall 0.0 0.0  
Since 1 June snowfall 0.0 0.0  
Since 1 July snowfall 2.8 6.8  
Snow Depth 0.00 in    
Sea Level Pressure  
Sea Level Pressure 29.79 in    
Wind  
Wind Speed 10 mph (North)    
Max Wind Speed 25 mph    
Max Gust Speed 36 mph    
Visibility 10 miles    
Events      
T = Trace of Precipitation, MM = Missing Value Source: NWS Daily Summary

Daily Weather History Graph

Daily Weather History Graph

Search for Another Location

Airport:

Trip Planner

Search our weather history database for the weather conditions in past years. The results will help you decide how hot, cold, wet, or windy it might be!

Date:

Astronomy

Jun. 13, 2013 Rise Set
Actual Time 5:32 AM PDT 8:15 PM PDT
Civil Twilight 5:01 AM PDT 8:46 PM PDT
Nautical Twilight 4:22 AM PDT 9:24 PM PDT
Astronomical Twilight 3:38 AM PDT 10:08 PM PDT
Moon 10:08 AM PDT (6/13) 11:29 PM PDT (6/13)
Length of Visible Light 15h 45m
Length of Day
14h 43m
Waxing Crescent, 22% of the Moon is Illuminated
Jun 13
Waxing Crescent
Jun 16
First Quarter
Jun 23
Full
Jun 29
Last Quarter
Jul 8
New

Hourly Weather History & Observations

Time (PDT) Temp. Dew Point Humidity Pressure Visibility Wind Dir Wind Speed Gust Speed Precip Events Conditions
12:56 AM 63.0 °F 25.0 °F 24% 29.79 in 10.0 mi NW 8.1 mph - N/A   Clear
1:56 AM 72.0 °F 21.0 °F 15% 29.77 in 10.0 mi NNE 10.4 mph - N/A   Clear
2:56 AM 64.9 °F 23.0 °F 20% 29.77 in 10.0 mi North 11.5 mph - N/A   Clear
3:56 AM 62.1 °F 24.1 °F 23% 29.78 in 10.0 mi WNW 9.2 mph - N/A   Clear
4:56 AM 57.0 °F 24.1 °F 28% 29.80 in 10.0 mi NE 3.5 mph - N/A   Clear
5:56 AM 54.0 °F 25.0 °F 33% 29.81 in 10.0 mi Variable 3.5 mph - N/A   Clear
6:56 AM 60.1 °F 30.0 °F 32% 29.81 in 10.0 mi East 3.5 mph - N/A   Clear
7:56 AM 68.0 °F 27.0 °F 21% 29.80 in 10.0 mi NNE 3.5 mph - N/A   Clear
8:56 AM 77.0 °F 25.0 °F 15% 29.78 in 10.0 mi NNE 3.5 mph - N/A   Clear
9:56 AM 82.0 °F 19.0 °F 10% 29.78 in 10.0 mi Variable 3.5 mph - N/A   Clear
10:56 AM 84.9 °F 10.0 °F 6% 29.78 in 10.0 mi Variable 3.5 mph - N/A   Clear
11:56 AM 89.1 °F 5.0 °F 4% 29.77 in 10.0 mi NNW 5.8 mph - N/A   Clear
12:56 PM 91.9 °F -8.0 °F 4% 29.76 in 10.0 mi WSW 17.3 mph 25.3 mph N/A   Clear
1:56 PM 91.0 °F -9.0 °F 4% 29.75 in 10.0 mi Variable 4.6 mph - N/A   Clear
2:56 PM 91.9 °F 3.0 °F 4% 29.75 in 10.0 mi North 26.5 mph 34.5 mph N/A   Clear
3:56 PM 91.9 °F -0.0 °F 4% 29.76 in 10.0 mi NNE 21.9 mph 28.8 mph N/A   Clear
4:56 PM 91.0 °F -0.0 °F 4% 29.77 in 10.0 mi NNW 15.0 mph 20.7 mph N/A   Clear
5:56 PM 89.1 °F 1.0 °F 4% 29.77 in 10.0 mi NNW 15.0 mph 23.0 mph N/A   Clear
6:56 PM 86.0 °F 1.0 °F 4% 29.79 in 10.0 mi NNW 17.3 mph - N/A   Clear
7:56 PM 80.1 °F 12.0 °F 8% 29.80 in 10.0 mi NNW 15.0 mph - N/A   Clear
8:56 PM 75.0 °F 16.0 °F 11% 29.82 in 10.0 mi North 8.1 mph - N/A   Clear
9:56 PM 72.0 °F 19.0 °F 13% 29.84 in 10.0 mi North 9.2 mph - N/A   Clear
10:56 PM 70.0 °F 6.1 °F 8% 29.85 in 10.0 mi North 13.8 mph - N/A   Clear
11:56 PM 64.9 °F 12.9 °F 13% 29.87 in 10.0 mi NW 6.9 mph - N/A   Clear